Location: Brantley
(31.5822°N, 86.2569°W)
Time: 18:56:49
(UTC+00:00)

A-11 Canister half - Visible Passes

Search period start: 18 February 2026 00:00
Search period end: 28 February 2026 00:00
Orbit: 1512 x 1687 km, 47.2° (Epoch: 18 February)

Date Brightness Start Highest point End Pass type
(mag) Time Alt. Az. Time Alt. Az. Time Alt. Az.
18 Feb 9.5 00:37:45 10° SSW 00:47:14 46° SE 00:53:32 22° ENE visible
18 Feb 9.3 02:42:01 10° WSW 02:51:47 63° NW 02:51:47 63° NW visible
18 Feb 9.2 09:14:25 63° ESE 09:14:25 63° ESE 09:21:58 10° SE visible
18 Feb 9.8 11:12:40 20° W 11:16:39 27° SW 11:24:00 10° S visible
19 Feb 9.6 00:14:54 10° SSW 00:24:12 42° SE 00:32:26 14° ENE visible
19 Feb 9.3 02:18:51 10° WSW 02:28:59 66° NNW 02:30:41 59° N visible
19 Feb 11.0 04:26:45 10° WNW 04:28:56 17° WNW 04:28:56 17° WNW visible
19 Feb 9.7 08:53:21 42° ESE 08:53:21 42° ESE 08:58:55 10° SE visible
19 Feb 9.7 10:51:36 27° WSW 10:53:41 29° SW 11:01:20 10° S visible
19 Feb 9.7 23:52:03 10° SSW 00:01:11 39° SE 00:10:18 10° ENE visible
20 Feb 9.2 01:55:42 10° WSW 02:05:52 70° NW 02:09:31 44° NNE visible
20 Feb 10.7 04:03:28 10° WNW 04:07:45 24° NW 04:07:45 24° NW visible
20 Feb 10.3 08:32:19 27° ESE 08:32:19 27° ESE 08:35:53 10° ESE visible
20 Feb 9.6 10:30:34 32° SW 10:30:43 32° SW 10:38:38 10° S visible
21 Feb 9.2 01:32:33 10° WSW 01:42:45 73° NW 01:48:16 32° NE visible
21 Feb 10.3 03:40:11 10° WNW 03:46:30 31° NW 03:46:30 31° NW visible
21 Feb 10.9 08:11:20 16° ESE 08:11:20 16° ESE 08:12:48 10° ESE visible
21 Feb 9.7 10:09:35 32° SSW 10:09:35 32° SSW 10:15:54 10° S visible
22 Feb 9.2 01:09:26 10° WSW 01:19:38 77° NW 01:26:57 22° NE visible
22 Feb 10.1 03:16:53 10° W 03:25:10 36° NNW 03:25:10 36° NNW visible
22 Feb 10.0 09:48:37 28° S 09:48:37 28° S 09:53:08 10° SSE visible
23 Feb 9.2 00:46:20 10° SW 00:56:32 81° NW 01:05:34 14° NE visible
23 Feb 10.0 02:53:36 10° W 03:02:51 38° NNW 03:03:46 37° N visible
23 Feb 11.3 05:01:35 10° NW 05:01:59 11° NW 05:01:59 11° NW visible
23 Feb 10.4 09:27:39 20° S 09:27:39 20° S 09:30:21 10° SSE visible
24 Feb 9.2 00:23:14 10° SW 00:33:26 85° NW 00:43:38 10° NE visible
24 Feb 10.0 02:30:19 10° W 02:39:38 39° NNW 02:42:18 34° NNE visible
24 Feb 11.0 04:38:24 10° NW 04:40:31 17° NW 04:40:31 17° NW visible
24 Feb 10.8 09:06:40 13° SSE 09:06:40 13° SSE 09:07:32 10° SSE visible
25 Feb 9.3 00:00:09 10° SW 00:10:20 89° NW 00:20:34 10° NE visible
25 Feb 10.0 02:07:03 10° W 02:16:26 40° NNW 02:20:46 28° NNE visible
25 Feb 10.8 04:15:11 10° NW 04:18:58 22° NW 04:18:58 22° NW visible
26 Feb 10.0 01:43:46 10° W 01:53:15 41° NNW 01:59:11 23° NE visible
26 Feb 10.5 03:51:58 10° NW 03:57:23 27° NNW 03:57:23 27° NNW visible
27 Feb 10.0 01:20:31 10° W 01:30:03 43° NNW 01:37:32 17° NE visible
27 Feb 10.3 03:28:45 10° WNW 03:35:45 31° NNW 03:35:45 31° NNW visible
